Other Surface Observations
Issued by NWS Charleston, SC

Home | Current Version | Previous Version | Text Only | Print | Product List | Glossary On
Versions: 1 2 3 4 5 6 7 8 9 10 11 12 13 14 15 16 17 18 19 20 21 22 23 24 25 26 27 28 29 30 31 32 33 34 35 36 37 38 39 40 41 42 43 44 45 46 47 48 49 50
000
SXUS52 KCHS 061627
OSOCHS

MARINE OBSERVATIONS
NATIONAL WEATHER SERVICE CHARLESTON SC
1200 PM EDT MON JUL 06 2015

...DOWNTOWN CHARLESTON AND HARBOR...

CITY           SKY/WX    TMP DP  RH WIND       PRES   REMARKS
WATERFRONT PRK   N/A     82  73  74 CALM      30.14S
FORT JOHNSON   NOT AVBL

...LAKE MOULTRIE...

CITY           SKY/WX    TMP DP  RH WIND       PRES   REMARKS
PINOPOLIS      NOT AVBL

...LAKE AND SUPPLEMENTAL COASTAL OBSERVATIONS...

STATION/POSITION TIME  TEMP    WIND        PRES    WAVE   SWELL
                       AIR SEA DIR/SP/G            HT/PER HT/PER/DIR
                 (UTC) (F)     (DEG/KT/KT) (MB)    (FT/S) (FT/S/D)
FORT PULASKI     1600   78 83  290/  2/  2 1022.3F
SAPELO ISLAND    1600   83     290/  4     1022.0S
UPR LAKE MARION  NOT AVBL
WINYAH BAY       1500   81     230/  5     1021.0R
LAKE MURRAY      1600   81     190/  6/  7 1020.0F
ACE BASIN NERRS  1500   76     350/  2     1022.0


...C-MAN AND BUOY OBSERVATIONS...

STATION/POSITION TIME  TEMP    WIND        PRES    WAVE   SWELL
                       AIR SEA DIR/SP/G            HT/PER HT/PER/DIR
                 (UTC) (F)     (DEG/KT/KT) (MB)    (FT/S) (FT/S/D)
BUOY 41004       1550   80 83  250/  8/ 10 1020.9R   3/ 9   3/ 9
BUOY 41008       1550   75 79  240/  4/  6 1022.4R   2/ 9   2/110/ 9
FOLLY BEACH CMAN 1600   81     190/  6/  7 1021.5F
CAPERS NS BUOY   1508   80     240/  6/  8 1021.6S
FRIPP NS BUOY    1500   78     360/  2/  4 1021.6R
5E ST. MARYS GA  1521      77                N/A     2/ 8


STATION/POSITION TIME  TEMP    WIND        PRES    WAVE   SWELL
                       AIR SEA DIR/SP/G            HT/PER HT/PER/DIR
                 (UTC) (F)     (DEG/KT/KT) (MB)    (FT/S) (FT/S/D)
FRYING PAN BUOY  1550   80 79  240/  8/ 10 1021.8F   3/ 5   3/190/ 5
BUOY 41025       1550   80 83  190/ 12/ 16 1021.8R   3/ 5   2/120/ 9
CAPE LOOKOUT NC  1600   80     180/  7/  9 1021.3F
BUOY 41002       1550   76 80  190/  6/ 10 1023.9F   3/ 9   3/130/ 9
BUOY 41010       1520   82 84  170/  8/ 10 1023.1R
ST AUGUSTINE FL  1600   74 71  110/  6/  6 1023.5R

$$



USA.gov is the U.S. government's official web portal to all federal, state and local government web resources and services.